Temperature
13 13 13 12 12 12 12 11 11 11 11 10 10 10 10 10 10 10 10 11 11 12 12 12 13 13 13 14 14 13 13 13 13 13 13 13 13 13 13 13 13 14 14
13 12 12 12 12 11 11 11 11 11 10 10 10 10 10 9 9 10 10 10 10 11 11 12 12 13 13 13 13 13 13 13 13 13 13 13 13 13 12 12 12 12 13
12 12 12 12 12 11 11 11 11 10 10 10 10 10 10 9 9 9 9 9 9 10 10 11 11 12 12 13 13 13 13 13 13 12 13 13 12 12 12 12 12 12 12
12 12 11 11 11 11 11 11 11 10 10 10 10 10 9 9 9 9 9 9 9 9 9 10 10 11 11 12 12 13 13 13 13 12 12 12 12 12 12 12 11 11 11
11 11 11 11 11 11 11 11 10 10 10 10 10 9 9 9 9 9 9 9 9 9 9 9 10 10 11 11 11 12 12 12 12 12 12 12 12 12 12 11 11 11 11
9 9 10 10 10 10 10 10 10 10 10 10 9 9 9 9 9 9 9 9 8 9 9 9 9 10 10 11 11 11 12 12 12 12 12 12 12 12 12 12 11 11 10
8 8 8 8 8 9 9 9 9 9 9 9 9 9 9 9 9 9 8 8 8 8 8 9 9 10 10 10 11 11 11 12 12 12 12 12 12 12 12 11 11 11 11
7 7 7 6 7 7 7 8 8 8 9 9 9 9 9 9 8 8 8 8 8 8 8 8 9 9 10 10 10 11 11 11 12 12 12 12 13 13 12 12 11 11 11
5 5 5 5 5 5 6 6 7 7 8 8 8 8 8 8 8 8 8 8 8 8 8 8 8 9 9 9 10 10 11 11 11 12 12 12 12 12 12 11 11 11 10
5 5 5 5 5 5 5 5 6 6 6 7 7 7 8 8 8 8 8 7 7 8 8 8 8 8 9 9 9 10 10 11 11 11 11 11 12 11 11 11 11 11 11
4 4 4 4 4 4 4 5 5 5 6 6 6 7 7 7 7 7 7 7 7 7 8 8 8 8 8 9 9 10 10 11 11 11 11 11 11 11 11 11 11 12 12
4 4 4 4 4 4 4 4 4 5 5 5 6 6 6 7 7 7 7 7 7 7 7 8 8 8 8 9 9 9 10 10 10 11 11 11 11 11 11 11 11 11 12
4 4 4 4 4 4 4 4 4 4 4 5 5 6 6 6 7 7 7 7 7 7 7 8 8 8 8 8 9 9 9 10 10 10 10 11 11 11 10 10 10 10 10
4 4 4 4 4 4 4 4 4 4 4 5 5 5 6 6 6 7 7 7 7 7 7 7 8 8 8 8 9 9 9 10 10 10 10 11 11 10 10 10 10 10 10
4 4 4 4 4 4 4 4 4 4 4 5 5 5 5 6 6 6 7 7 7 7 7 7 7 7 8 8 8 9 9 9 10 10 10 10 10 10 10 10 10 10 10
4 4 4 4 4 4 4 4 4 4 5 5 5 5 5 6 6 6 6 7 7 7 7 6 7 7 7 7 8 8 9 9 10 10 10 10 10 10 10 10 10 10 10
5 5 5 5 5 4 4 4 5 5 5 5 5 5 6 6 6 6 6 6 6 6 6 6 6 7 7 7 8 8 8 9 9 10 10 10 10 10 10 10 10 10 10
5 5 5 5 5 5 5 5 5 5 5 5 5 5 6 6 6 6 6 6 6 6 6 6 6 7 7 7 7 8 8 9 9 10 10 10 10 10 10 10 10 10 10
5 5 5 5 5 5 5 5 5 5 5 5 5 5 6 6 6 6 6 6 6 6 6 6 6 7 7 7 8 8 8 9 9 9 10 10 10 10 10 10 10 10 10
5 5 5 5 5 5 5 5 5 5 5 5 5 5 6 6 6 6 6 6 6 6 6 6 6 7 7 7 8 8 8 9 9 9 10 10 10 10 10 10 10 10 10
6 6 6 6 5 5 5 5 5 5 5 5 6 6 6 6 6 6 6 6 6 6 6 7 7 7 7 8 8 8 8 9 9 9 9 9 9 9 9 10 10 10 9
6 6 6 6 6 6 6 6 6 6 6 6 6 6 6 6 6 6 6 6 6 6 7 7 7 7 8 8 8 9 9 9 9 9 9 9 9 9 9 9 9 9 9
6 6 6 6 6 6 6 6 6 6 6 6 6 6 6 6 6 6 6 7 7 7 7 7 8 8 8 8 9 9 9 9 9 9 9 9 9 9 9 9 9 9 9
6 6 6 6 6 6 6 6 6 6 6 6 6 6 6 7 7 7 7 7 7 8 8 8 8 8 9 9 9 9 10 10 10 10 10 10 10 10 10 10 10 10 10
7 7 6 6 6 6 6 6 6 7 7 7 7 7 7 7 7 7 8 8 8 8 8 9 9 9 9 10 10 10 10 10 10 10 10 10 10 10 10 10 10 10 10
7 7 7 7 7 7 7 7 7 7 7 7 7 8 8 8 8 8 9 9 9 9 9 9 10 10 10 10 10 10 10 10 10 10 10 10 10 10 10 10 10 10 10
Wind_Speed
10 10 10 9 9 8 8 9 9 8 8 8 7 6 6 6 5 4 5 5 5 5 5 6 7 7 6 6 6 7 7 7 7 4 2 2 2 4 4 6 7 7 9
11 10 11 11 10 10 11 11 10 10 9 9 8 8 8 8 7 6 7 6 5 6 6 6 7 6 7 7 7 8 8 8 8 7 4 3 2 5 6 6 5 7 9
11 11 11 12 12 12 13 12 11 11 11 10 9 10 10 9 8 8 8 7 7 7 6 6 7 7 7 6 7 8 7 7 8 6 5 3 2 4 6 6 7 6 8
11 11 12 13 13 14 13 12 12 11 11 11 11 11 11 10 10 9 8 8 8 8 7 7 8 8 9 8 8 9 8 8 8 7 6 4 4 5 6 6 6 5 5
11 12 13 14 13 12 12 13 12 11 13 12 11 11 11 10 10 10 10 10 9 8 8 8 8 10 12 10 8 8 9 8 8 8 7 6 6 7 7 5 7 7 5
11 13 13 12 12 12 12 12 11 11 12 11 11 12 11 10 13 15 12 9 9 9 9 9 9 10 12 13 14 13 13 11 11 9 8 9 9 9 8 10 9 7 4
12 13 12 12 12 13 13 11 11 12 11 11 11 11 12 13 15 15 16 10 10 9 10 9 9 9 10 9 11 13 14 16 14 11 11 12 12 13 13 12 10 7 5
13 14 13 12 12 12 12 11 11 10 9 10 10 11 11 12 15 16 15 11 10 10 11 11 10 10 10 9 9 9 10 12 14 13 11 12 12 13 14 12 12 9 8
15 14 13 13 13 12 12 12 11 9 9 9 8 10 10 12 14 15 13 7 8 11 11 11 11 11 12 12 10 10 10 9 11 13 12 12 15 17 16 13 13 13 8
15 15 14 13 13 14 13 12 10 9 10 9 9 9 10 11 13 14 12 7 8 9 9 9 12 13 13 13 11 10 11 9 9 10 10 13 15 18 19 16 15 14 10
16 16 14 13 13 13 12 11 10 10 9 9 9 9 9 11 12 14 13 8 9 9 8 8 8 12 14 14 13 10 11 9 10 11 11 12 12 13 13 11 11 13 12
16 15 14 13 12 11 10 9 9 9 9 9 9 9 8 9 10 12 14 14 12 9 9 8 8 10 12 12 11 10 11 10 9 10 11 11 12 12 11 11 10 8 5
15 14 13 13 11 10 9 9 8 7 7 8 8 8 7 6 8 13 14 14 14 11 9 10 10 10 9 9 11 12 10 9 10 11 12 11 10 12 12 10 10 9 9
15 14 12 11 10 8 7 7 7 7 7 7 7 7 7 6 6 6 6 7 9 10 8 8 9 9 7 7 8 9 8 9 10 10 10 10 10 11 12 11 11 10 8
14 12 11 9 8 7 6 5 7 7 7 7 6 6 6 7 7 9 7 6 5 6 5 4 5 5 5 6 6 7 7 9 9 9 11 11 12 12 11 11 10 10 7
12 11 9 7 6 5 5 5 6 7 8 10 10 8 6 8 7 7 8 8 7 7 5 4 6 6 6 7 7 7 7 9 10 11 12 12 13 13 11 11 11 11 11
12 11 8 7 6 5 4 4 3 2 2 2 5 8 8 6 5 5 6 5 6 7 5 5 6 6 6 7 7 7 7 8 9 11 12 13 13 13 13 12 12 11 10
11 11 9 6 5 4 3 3 2 2 1 1 1 1 2 3 3 4 6 5 3 4 4 4 5 5 6 7 8 8 8 9 10 11 12 12 13 13 13 12 12 12 11
10 8 6 5 4 3 2 2 2 1 1 1 2 3 4 4 4 4 5 3 3 3 4 4 4 5 6 7 8 8 9 10 11 11 12 12 12 13 12 12 11 14 12
8 11 8 5 4 3 2 2 1 1 1 2 2 2 2 2 2 2 2 2 2 2 3 3 4 5 6 8 9 9 10 11 12 11 12 11 11 12 13 13 12 12 10
7 7 8 5 3 3 2 2 1 1 2 2 1 1 1 1 1 1 1 1 1 2 3 3 5 6 7 8 9 11 12 11 11 11 11 11 11 11 11 11 11 11 10
6 5 4 4 3 3 2 2 2 2 2 2 2 1 1 1 1 1 0 1 1 2 2 4 5 6 7 9 10 11 11 11 11 11 11 11 10 11 11 10 10 10 10
6 5 4 3 3 3 3 3 3 3 3 2 2 2 1 1 1 1 1 1 2 3 3 4 6 6 6 7 9 11 11 11 11 12 12 11 10 10 10 11 11 11 10
5 5 4 4 3 3 3 3 3 3 3 2 2 2 1 1 1 2 1 2 2 3 3 4 5 8 10 8 7 8 9 10 11 12 14 12 11 10 9 10 10 11 10
5 4 4 3 4 3 4 4 4 4 3 3 2 2 2 2 2 2 1 1 2 3 4 5 5 7 10 11 9 8 12 13 12 11 11 11 11 11 10 10 9 9 9
6 5 4 4 3 3 3 3 3 4 3 3 2 2 2 2 2 2 2 2 3 4 4 4 6 8 9 8 10 12 13 13 13 13 10 10 11 9 10 8 10 9 9
Wind_Direction
254 251 253 252 246 239 237 240 240 241 237 238 245 250 257 262 263 259 259 259 259 261 258 245 240 228 219 217 212 211 213 216 240 243 219 181 152 137 111 95 87 78 74
255 253 252 253 252 247 245 244 241 240 240 237 239 241 247 251 248 246 255 256 250 253 254 254 255 244 229 218 213 215 215 213 222 232 213 188 167 150 130 114 100 90 84
257 254 255 255 252 249 248 245 241 239 242 240 234 238 242 243 243 242 243 248 247 247 248 246 251 250 246 231 221 220 218 215 212 214 205 182 153 145 132 117 107 99 91
268 263 261 259 254 251 249 246 242 238 238 240 237 236 238 239 241 241 239 241 245 246 246 246 247 244 245 239 230 225 218 214 209 206 198 179 160 150 143 138 124 105 95
276 271 266 263 259 254 251 249 245 239 239 237 237 238 236 235 239 236 235 238 238 244 249 250 250 249 245 240 235 224 213 212 208 203 194 181 171 164 159 149 137 120 87
281 278 275 271 266 259 254 251 246 242 239 234 232 234 235 235 233 230 228 232 234 239 250 256 258 260 255 247 239 225 211 209 208 203 197 190 182 171 157 153 147 143 130
285 282 280 277 274 269 264 257 248 243 237 232 233 232 234 235 234 236 236 230 234 239 244 252 260 259 249 249 245 232 221 214 208 203 199 193 181 173 163 162 162 151 134
288 286 283 280 279 277 271 262 255 249 240 233 233 230 231 239 238 237 238 234 235 241 243 245 249 257 252 241 242 236 229 221 215 213 210 196 182 172 167 160 147 122 109
294 291 288 285 282 278 273 268 261 254 247 236 232 231 231 240 239 237 235 229 234 242 244 244 243 250 246 232 232 232 229 224 217 207 199 183 167 159 154 146 145 142 137
296 293 289 282 279 275 269 264 260 253 250 245 239 233 231 237 240 238 231 224 234 244 247 246 241 241 241 228 226 223 223 215 193 185 177 165 162 159 158 161 160 155 147
298 295 291 282 276 273 269 262 256 251 248 246 245 241 233 234 240 239 231 219 227 237 243 246 243 234 235 229 221 222 220 201 186 178 169 164 162 164 165 162 161 161 157
301 298 294 286 281 281 269 264 256 247 244 245 246 249 243 237 235 239 235 226 219 227 238 243 240 234 232 229 222 214 207 192 182 174 168 165 164 165 164 159 151 144 126
306 302 297 292 283 277 270 264 257 246 243 243 239 243 245 239 236 235 238 234 224 225 237 237 235 232 229 230 221 202 192 189 181 176 171 166 162 158 151 141 125 111 97
308 307 303 298 291 284 273 260 250 243 239 238 235 236 242 244 240 233 230 231 229 227 233 234 226 222 220 219 201 193 195 189 180 173 161 152 146 149 151 148 144 138 124
314 311 311 305 296 293 285 264 253 243 234 228 230 229 231 242 238 222 214 213 209 210 203 209 204 199 204 203 194 188 182 177 171 158 152 151 150 150 150 150 148 148 145
319 317 315 311 305 299 296 292 259 247 246 233 232 231 233 236 247 239 219 214 207 194 189 205 203 202 200 194 184 175 170 168 162 154 153 152 152 152 149 151 156 159 155
319 317 315 312 309 303 299 303 309 298 268 245 242 237 236 244 245 212 192 188 195 189 204 212 205 197 190 181 172 164 160 156 152 151 150 149 147 148 150 152 155 154 152
319 318 320 316 316 312 307 309 310 314 331 29 30 360 215 210 188 168 162 155 177 198 210 208 199 185 176 169 161 154 149 145 144 144 143 144 145 146 148 150 153 152 149
321 318 318 320 322 321 318 319 329 347 39 72 70 56 80 107 116 140 162 177 190 203 203 201 184 167 162 157 150 147 145 142 140 139 139 140 143 144 146 149 149 147 146
321 327 332 328 333 341 347 356 17 33 61 73 81 87 99 103 113 133 169 191 192 181 170 164 157 151 147 147 144 141 138 136 137 137 137 138 141 143 145 147 149 153 155
321 326 337 338 341 344 352 9 33 59 74 74 71 94 102 109 117 136 168 170 141 131 134 138 139 135 131 133 136 136 135 137 139 138 137 139 140 141 144 147 150 152 150
326 329 336 340 347 2 14 25 52 69 78 77 68 77 76 52 61 65 82 111 114 114 127 129 127 126 131 134 134 134 136 139 140 140 139 140 141 143 144 148 151 153 153
339 347 356 1 7 21 37 52 63 73 76 71 71 75 73 29 28 32 46 52 83 102 113 119 120 124 127 131 136 141 145 148 148 146 144 145 146 148 150 153 155 156 161
348 358 11 17 24 35 45 54 62 72 79 75 71 72 55 26 31 47 60 69 86 95 109 125 132 137 135 134 138 143 144 144 145 148 148 149 150 151 153 157 162 167 169
358 9 22 31 39 50 58 59 63 68 69 61 58 56 47 37 36 41 44 60 84 97 109 120 128 136 142 143 143 140 136 136 141 146 148 148 151 154 158 161 162 162 163
9 21 30 43 50 56 65 64 60 62 65 60 56 50 38 34 30 42 61 77 85 91 102 111 128 137 139 141 138 134 136 139 141 143 147 148 151 157 161 163 164 167 168
Height
1475 1473 1471 1469 1467 1465 1464 1462 1461 1460 1459 1458 1458 1457 1456 1456 1455 1455 1455 1455 1456 1457 1459 1460 1462 1465 1467 1470 1472 1473 1474 1475 1476 1476 1478 1478 1479 1479 1479 1480 1481 1481 1482
1469 1466 1464 1462 1460 1458 1456 1455 1454 1453 1452 1452 1451 1451 1450 1450 1450 1449 1449 1449 1450 1451 1452 1453 1455 1457 1460 1463 1465 1467 1468 1470 1471 1472 1473 1475 1475 1476 1477 1478 1479 1480 1481
1461 1458 1456 1453 1452 1450 1448 1447 1446 1445 1445 1444 1444 1444 1444 1444 1444 1444 1444 1444 1444 1445 1445 1446 1448 1450 1452 1455 1458 1460 1462 1464 1465 1467 1469 1471 1472 1473 1475 1476 1478 1479 1480
1453 1450 1446 1444 1442 1440 1439 1438 1437 1437 1436 1436 1436 1436 1436 1437 1437 1437 1437 1437 1438 1438 1439 1440 1441 1443 1445 1448 1450 1453 1455 1457 1459 1461 1463 1466 1468 1470 1472 1474 1476 1478 1479
1443 1440 1436 1434 1432 1430 1429 1428 1427 1427 1427 1427 1428 1428 1428 1429 1429 1430 1430 1431 1431 1432 1433 1434 1435 1436 1438 1441 1443 1446 1448 1450 1453 1455 1458 1460 1463 1466 1468 1471 1474 1476 1478
1433 1429 1426 1424 1421 1419 1418 1418 1417 1417 1417 1418 1418 1419 1420 1421 1422 1423 1423 1423 1424 1425 1426 1427 1428 1429 1431 1433 1436 1438 1441 1443 1446 1449 1451 1454 1457 1461 1464 1468 1471 1474 1476
1424 1420 1416 1413 1410 1408 1407 1406 1406 1407 1408 1408 1409 1410 1411 1413 1414 1415 1416 1416 1417 1418 1419 1420 1420 1422 1424 1426 1428 1430 1432 1435 1439 1442 1445 1448 1452 1455 1459 1464 1468 1472 1474
1414 1409 1406 1403 1400 1398 1396 1395 1395 1396 1397 1398 1400 1401 1403 1404 1406 1407 1408 1409 1410 1410 1411 1412 1413 1414 1416 1418 1420 1422 1425 1428 1431 1435 1438 1442 1447 1451 1456 1460 1464 1469 1473
1404 1400 1396 1393 1390 1388 1386 1385 1385 1386 1387 1388 1390 1392 1394 1396 1398 1400 1401 1401 1402 1403 1404 1405 1406 1407 1409 1411 1413 1415 1418 1421 1425 1429 1433 1437 1442 1447 1451 1456 1461 1465 1470
1396 1391 1387 1383 1380 1378 1376 1376 1376 1376 1377 1379 1381 1383 1385 1388 1390 1392 1393 1394 1394 1395 1397 1398 1399 1400 1402 1404 1406 1408 1411 1414 1418 1423 1427 1431 1436 1441 1447 1452 1456 1461 1466
1387 1382 1378 1374 1371 1369 1367 1367 1367 1368 1369 1370 1372 1375 1377 1379 1382 1384 1385 1386 1387 1388 1389 1390 1392 1393 1395 1397 1399 1401 1404 1409 1413 1417 1422 1426 1431 1437 1443 1449 1455 1460 1464
1380 1375 1370 1366 1364 1361 1359 1359 1359 1359 1361 1362 1364 1366 1369 1371 1373 1375 1377 1379 1380 1381 1381 1383 1384 1386 1388 1390 1392 1395 1399 1403 1407 1411 1416 1421 1427 1433 1440 1446 1453 1460 1465
1374 1368 1363 1360 1357 1355 1353 1352 1352 1352 1353 1355 1357 1359 1361 1363 1366 1368 1370 1371 1373 1374 1375 1376 1378 1379 1381 1383 1385 1389 1393 1397 1401 1406 1411 1417 1423 1430 1438 1445 1452 1458 1464
1369 1363 1358 1354 1351 1349 1347 1346 1346 1347 1348 1349 1350 1352 1354 1357 1359 1361 1363 1365 1366 1367 1368 1370 1371 1373 1375 1377 1379 1383 1387 1391 1396 1401 1407 1414 1421 1428 1435 1442 1449 1456 1462
1365 1359 1355 1350 1347 1345 1343 1342 1342 1342 1343 1344 1345 1347 1349 1351 1353 1356 1357 1359 1360 1362 1363 1364 1365 1367 1369 1371 1374 1377 1382 1386 1392 1397 1404 1410 1418 1426 1434 1441 1447 1454 1460
1362 1357 1352 1348 1345 1343 1341 1340 1339 1339 1339 1340 1342 1344 1345 1347 1349 1351 1353 1355 1356 1357 1358 1359 1360 1362 1364 1366 1369 1373 1378 1383 1388 1394 1401 1408 1416 1424 1431 1439 1446 1452 1458
1360 1355 1350 1347 1344 1341 1340 1339 1338 1337 1337 1338 1339 1341 1343 1344 1346 1348 1350 1351 1352 1353 1354 1354 1356 1357 1360 1362 1365 1370 1375 1381 1387 1393 1400 1408 1415 1423 1430 1437 1444 1451 1457
1358 1354 1350 1346 1343 1341 1340 1339 1338 1337 1337 1337 1338 1339 1341 1342 1344 1345 1347 1348 1349 1349 1349 1350 1352 1354 1357 1360 1364 1369 1374 1381 1387 1394 1401 1408 1415 1423 1430 1437 1444 1450 1456
1356 1352 1349 1347 1344 1342 1340 1339 1339 1338 1338 1338 1339 1339 1340 1342 1343 1344 1345 1346 1346 1346 1347 1348 1350 1353 1356 1359 1364 1369 1375 1382 1388 1395 1402 1409 1416 1423 1430 1437 1443 1450 1456
1355 1352 1349 1347 1345 1343 1342 1341 1340 1339 1339 1339 1340 1340 1341 1342 1343 1344 1345 1345 1345 1346 1347 1348 1350 1353 1356 1360 1365 1371 1378 1384 1390 1397 1403 1411 1418 1425 1431 1437 1443 1449 1455
1355 1352 1350 1348 1347 1345 1344 1342 1342 1341 1341 1341 1342 1342 1343 1343 1343 1344 1345 1345 1345 1346 1348 1350 1352 1355 1359 1363 1368 1374 1380 1387 1393 1400 1406 1413 1420 1426 1432 1438 1444 1450 1455
1356 1353 1351 1350 1348 1347 1346 1345 1344 1344 1344 1344 1344 1344 1345 1345 1345 1345 1346 1347 1348 1349 1351 1353 1355 1359 1363 1368 1373 1379 1385 1391 1397 1403 1410 1416 1422 1428 1434 1440 1445 1450 1455
1357 1355 1353 1351 1350 1349 1348 1348 1347 1347 1347 1347 1347 1347 1347 1347 1348 1348 1349 1350 1351 1353 1355 1357 1361 1365 1369 1374 1380 1385 1390 1396 1401 1407 1413 1418 1424 1430 1435 1440 1445 1450 1455
1358 1356 1355 1354 1353 1352 1351 1351 1351 1351 1351 1351 1351 1351 1352 1352 1352 1352 1353 1354 1356 1358 1361 1364 1367 1371 1375 1380 1385 1391 1396 1401 1406 1412 1417 1421 1427 1432 1437 1442 1446 1451 1455
1361 1359 1357 1356 1356 1355 1355 1355 1355 1355 1355 1355 1356 1356 1357 1357 1357 1357 1358 1360 1362 1364 1367 1370 1373 1377 1381 1386 1390 1395 1400 1405 1410 1415 1419 1424 1429 1434 1438 1443 1447 1451 1455
1364 1362 1361 1360 1359 1359 1359 1359 1359 1359 1360 1360 1361 1361 1362 1362 1363 1363 1365 1366 1368 1370 1373 1376 1379 1383 1387 1391 1395 1399 1404 1408 1413 1417 1422 1426 1431 1435 1439 1443 1447 1451 1454